RH
53 59 41 31 23 19 18 19 18 18 14 11 19 54 93 95 97 80 95 89 96 97 94 92 91 74 66 58 66 77 75 77 88 94 97 96 87 80 85 82 72 40 28 24
41 53 53 40 28 25 18 15 15 18 19 13 11 22 45 91 92 98 91 98 93 89 89 88 92 92 83 60 66 68 72 78 86 92 95 91 88 92 94 93 74 40 28 26
36 49 58 48 42 28 25 22 17 14 16 17 13 11 23 46 86 94 97 97 94 82 76 80 84 94 93 88 91 75 73 84 94 95 94 98 95 89 97 88 59 40 30 30
28 39 50 50 44 37 33 27 23 18 13 14 16 10 10 22 37 73 92 90 98 98 91 100 100 100 99 100 99 88 86 91 94 94 94 96 98 94 78 63 47 32 29 33
30 32 36 39 32 41 48 42 31 22 17 12 13 13 10 10 19 34 62 77 89 96 98 100 99 100 99 93 100 97 93 94 92 97 100 99 96 87 70 85 41 31 32 38
37 40 41 44 38 32 35 43 55 34 20 13 12 11 11 10 9 16 28 50 68 77 82 94 95 93 95 100 89 94 81 97 96 93 93 87 92 75 82 64 36 32 37 42
48 48 42 44 42 41 41 41 45 49 26 14 14 12 9 10 10 10 12 20 34 43 73 67 84 97 98 96 95 97 96 91 80 94 91 87 79 82 69 39 36 39 43 43
39 43 50 54 50 48 49 47 41 36 31 23 20 13 9 9 10 10 10 10 15 27 40 56 71 96 96 96 95 90 90 89 75 68 98 95 97 66 39 38 43 44 45 45
40 38 38 42 54 59 68 55 56 36 31 31 21 13 11 10 10 12 11 10 10 17 31 43 56 81 94 92 94 92 86 96 65 65 58 54 47 41 40 45 46 47 46 42
55 52 40 40 40 41 56 64 55 51 33 30 25 17 12 15 14 14 12 10 10 11 17 32 45 62 69 96 94 88 67 58 54 46 45 43 44 46 47 48 49 46 42 38
97 71 53 48 46 44 38 38 48 59 48 38 25 22 24 19 17 14 13 11 10 10 10 16 29 35 56 64 65 67 55 44 41 42 42 48 50 49 50 49 45 42 38 36
100 100 96 60 52 51 53 45 35 36 46 46 35 20 35 35 25 22 20 15 12 10 10 11 15 23 30 32 26 34 37 38 39 42 48 50 49 50 48 43 39 36 33 32
96 91 98 100 78 51 52 56 54 42 31 36 38 22 96 69 40 22 21 16 13 11 10 10 11 13 16 17 19 23 28 34 42 46 44 46 48 44 38 35 32 32 32 34
99 99 98 99 100 99 58 55 54 53 45 48 33 31 93 96 76 34 21 20 15 11 10 10 10 11 13 16 19 23 27 31 38 42 43 42 38 34 30 29 31 34 35 35
95 100 99 99 89 96 100 78 50 43 50 35 51 35 85 93 100 91 45 23 15 12 10 9 9 10 11 14 18 23 28 31 32 35 36 31 26 26 30 35 36 36 36 39
84 89 88 98 98 94 94 100 94 80 45 42 44 38 48 100 46 48 44 38 36 29 18 12 12 13 14 16 20 25 30 32 31 28 25 26 32 37 37 36 37 40 54 78
45 80 80 77 87 89 92 94 97 100 94 47 40 35 45 50 49 26 25 33 45 42 38 37 32 30 32 36 35 32 26 23 26 30 35 36 36 36 38 41 56 85 99 99
55 60 83 79 81 77 95 94 86 93 100 98 82 40 40 32 30 31 27 24 24 25 24 24 24 23 22 22 24 27 30 33 35 36 37 39 40 50 74 97 99 99 100 100
83 67 63 78 88 69 94 100 96 88 88 96 98 98 78 47 40 36 30 26 25 24 23 23 25 26 28 30 32 34 36 38 40 50 66 87 98 99 100 100 100 100 100 86
74 70 71 78 88 90 87 92 95 93 90 91 91 93 95 96 95 76 54 45 41 36 34 34 34 37 42 48 56 69 83 95 99 99 99 100 100 100 100 99 92 82 81 81
88 82 83 85 79 67 99 88 88 95 92 81 75 74 76 78 80 84 86 88 90 92 93 92 92 91 89 88 86 87 90 92 93 98 99 96 89 85 89 91 91 85 82 85
82 86 96 93 83 75 95 99 98 87 87 91 85 77 73 72 69 71 70 67 63 61 59 59 59 60 62 63 65 68 71 74 78 81 84 87 91 94 93 91 92 93 98 99
68 80 83 87 88 96 97 99 99 95 88 82 82 76 75 89 89 94 92 81 75 73 72 70 68 70 71 72 74 77 82 86 91 94 98 99 100 100 100 99 99 100 98 95
65 72 62 68 82 100 98 95 99 92 87 83 76 77 75 72 69 71 71 73 76 80 81 82 87 95 98 97 99 99 100 100 100 100 100 100 100 99 100 100 100 98 86 75
66 70 71 63 78 99 87 96 97 91 81 79 80 80 78 73 71 70 66 64 66 71 79 84 87 87 94 100 100 100 100 100 100 100 100 100 98 98 99 98 89 77 68 56
69 73 76 60 100 98 75 90 92 87 85 78 72 66 68 74 75 71 68 65 62 62 66 74 84 96 100 100 100 100 100 100 100 100 100 100 100 100 97 89 80 69 50 41
Wind_Speed
10 5 8 15 20 23 28 32 37 42 46 49 54 58 57 59 45 56 43 54 47 40 42 41 38 41 35 36 35 34 34 34 36 37 34 32 31 33 32 31 28 27 27 26
8 8 3 12 19 22 25 27 31 37 44 47 51 57 60 59 61 51 54 47 49 49 48 46 43 45 42 35 37 39 40 42 41 40 36 31 37 40 33 30 29 29 29 29
12 12 3 5 12 19 24 27 30 32 40 47 49 54 57 59 60 59 50 51 51 51 52 47 40 35 38 40 42 44 45 42 41 41 36 38 42 41 35 29 32 31 32 32
12 11 7 3 6 12 17 24 29 32 34 41 48 52 54 58 59 57 56 48 52 55 51 47 44 39 38 43 44 46 47 46 44 41 40 42 44 31 29 32 35 36 36 37
14 11 9 6 5 6 12 18 26 32 37 37 40 50 50 54 58 57 56 58 55 47 51 52 48 46 42 48 47 52 48 38 38 39 41 44 34 34 35 38 38 39 39 40
13 11 8 6 6 7 9 14 21 28 34 40 38 41 48 49 52 55 54 55 53 47 49 44 51 53 40 36 49 47 49 43 33 35 34 33 32 36 39 41 42 42 42 43
16 12 10 8 6 6 8 10 16 23 29 33 38 41 42 42 49 51 53 52 51 46 45 48 46 57 48 44 45 45 40 36 29 26 23 28 32 38 44 44 45 45 46 46
17 15 14 10 10 8 6 7 12 17 21 27 32 39 40 35 43 48 48 49 49 47 47 46 44 52 50 46 45 38 33 33 32 31 37 37 38 44 47 47 47 49 49 50
19 16 13 13 11 10 9 8 9 14 17 22 27 30 34 33 37 43 44 45 45 42 41 43 41 43 44 43 35 33 39 39 35 43 45 46 45 46 47 49 50 51 51 50
15 17 15 12 11 11 11 11 12 14 17 22 23 25 29 30 34 40 41 42 44 45 43 40 40 41 42 43 41 39 42 45 47 49 48 48 46 48 50 52 52 52 51 52
18 15 17 14 13 11 11 12 15 16 19 21 25 27 27 30 33 36 38 39 40 43 42 42 42 42 42 37 39 43 46 48 51 52 52 50 50 52 53 53 53 52 53 54
24 20 16 15 14 14 13 13 15 19 19 20 22 24 22 23 27 30 32 36 38 40 41 41 41 42 43 44 48 50 52 52 53 54 53 54 54 54 54 54 53 54 56 58
30 25 21 16 18 15 14 16 16 17 18 19 22 12 19 21 23 28 31 36 38 38 38 39 40 43 45 47 49 51 53 53 54 56 56 56 56 55 54 53 55 57 58 58
28 29 27 22 18 18 16 18 19 19 14 14 16 11 22 22 23 28 32 36 37 38 39 40 41 43 46 48 50 52 54 55 56 56 56 56 54 52 53 55 57 57 59 60
33 27 28 24 23 20 14 17 21 14 15 13 7 14 23 24 27 27 31 34 36 38 39 41 42 44 45 47 48 50 52 54 54 53 52 51 52 54 56 57 58 60 62 63
34 32 28 22 24 22 19 17 19 19 14 13 12 11 23 30 29 30 31 32 33 35 39 41 43 44 46 47 47 48 48 47 46 48 51 54 54 56 57 60 62 63 63 65
38 35 30 25 23 22 20 21 21 20 17 15 13 14 23 31 29 25 27 30 32 34 35 36 38 39 40 40 41 42 44 47 50 51 53 54 57 59 61 63 63 64 65 65
41 40 37 28 26 23 22 21 21 20 20 17 15 16 20 25 26 29 28 27 30 31 32 33 36 37 40 42 44 46 47 49 51 53 56 58 60 61 62 63 63 63 63 65
38 40 42 37 28 24 24 22 23 24 24 24 21 18 19 23 26 26 25 26 30 32 34 36 37 39 41 42 45 48 50 53 54 55 57 59 60 60 60 61 63 65 67 68
36 36 40 39 42 28 24 28 25 24 23 26 26 26 24 23 25 27 29 30 32 34 36 38 40 42 44 46 48 50 52 54 56 57 57 58 58 59 62 63 65 66 67 68
37 36 36 37 42 37 26 27 29 27 25 27 28 29 29 29 29 29 31 32 34 36 38 40 42 45 46 48 50 52 53 55 56 57 57 58 58 60 62 63 64 65 66 68
35 37 37 40 42 37 33 29 29 32 31 29 30 30 30 29 29 29 31 33 35 38 40 42 44 45 47 48 50 52 53 53 54 54 56 58 60 61 63 65 66 68 68 68
43 41 41 40 40 38 35 33 31 32 35 36 36 32 30 32 33 34 36 39 41 43 44 45 46 48 49 51 53 53 54 55 58 60 60 61 61 63 63 65 65 64 65 62
48 49 47 44 38 38 39 38 38 40 42 42 39 38 37 36 36 38 39 41 42 44 46 48 48 49 51 53 54 55 56 56 56 56 57 58 59 60 61 62 62 61 62 63
55 52 49 47 41 39 43 41 42 44 45 45 43 42 42 42 41 42 43 45 46 47 48 50 51 52 52 52 53 53 53 53 54 56 57 57 59 60 59 59 60 61 63 64
54 54 54 50 40 44 44 42 45 46 46 47 48 48 46 44 45 44 44 46 47 49 51 52 51 50 50 51 52 53 52 53 55 55 55 56 56 56 56 58 60 62 63 65
Wind_Direction
358 337 235 227 217 213 217 220 220 220 220 220 218 224 230 225 204 223 225 205 211 204 216 221 221 224 222 229 232 236 239 236 243 252 263 272 268 269 274 281 289 295 296 297
8 357 265 224 224 224 220 217 220 220 221 222 221 220 226 233 228 218 223 231 207 216 223 230 227 231 219 217 229 235 233 239 244 255 257 268 267 274 269 276 287 291 294 297
11 5 351 229 225 225 226 226 222 219 221 223 223 223 224 229 235 230 211 220 211 213 220 223 226 228 239 243 241 236 244 247 255 262 258 252 269 275 270 276 284 288 291 292
12 17 18 357 251 239 230 227 227 226 222 223 224 226 224 227 231 240 236 236 226 211 218 222 223 218 226 234 238 244 245 251 257 265 254 263 266 261 273 281 285 288 290 292
359 4 9 347 321 257 245 244 229 226 226 225 225 231 225 227 230 233 238 237 245 242 212 214 220 226 235 240 242 242 248 259 255 247 260 261 261 272 279 282 284 284 286 289
359 353 349 347 328 281 252 256 238 223 226 224 226 233 229 230 231 233 235 240 245 248 254 240 220 227 232 237 245 249 260 257 270 273 258 255 257 267 272 278 281 282 285 288
14 350 330 328 319 309 276 243 242 233 224 226 228 233 233 230 233 235 235 237 242 244 247 248 252 238 236 238 246 243 252 264 269 265 270 259 257 268 273 276 279 282 285 287
7 13 360 328 313 309 298 262 247 243 226 222 230 231 234 232 234 235 238 239 240 243 246 252 251 255 262 254 246 252 260 255 262 265 263 263 268 268 271 276 278 282 285 288
4 5 4 1 336 314 295 283 260 251 245 233 229 234 236 237 235 234 236 238 239 241 244 247 251 259 263 256 257 253 258 259 265 259 261 263 267 271 273 276 280 283 286 287
355 352 349 347 346 340 318 294 277 271 258 247 234 224 234 233 228 230 231 235 237 238 241 243 245 250 261 248 252 258 260 260 261 263 266 269 271 272 275 279 281 283 286 287
350 344 335 340 333 327 319 308 292 276 272 265 243 225 228 229 226 228 230 233 237 238 239 240 242 247 254 259 256 252 254 257 260 264 267 269 271 275 277 279 282 284 285 285
356 351 329 324 320 321 315 304 294 288 280 267 262 229 235 235 225 223 224 227 230 234 237 239 240 242 242 248 250 251 254 257 259 262 265 270 273 277 279 282 283 284 283 284
338 341 349 317 316 310 310 307 304 294 288 281 268 216 222 227 219 213 215 220 225 230 234 238 239 241 243 244 247 250 253 256 259 265 268 271 275 277 280 282 282 282 284 286
333 331 332 335 322 311 304 295 297 299 303 289 273 233 211 219 218 210 213 216 221 225 229 233 236 238 241 243 247 250 254 258 262 266 270 273 277 280 280 280 282 283 284 286
330 326 319 318 320 319 301 287 291 305 297 289 288 245 207 222 220 221 218 219 221 226 229 233 237 241 244 248 251 254 257 261 265 270 275 278 278 278 279 281 282 283 285 286
325 321 311 316 304 309 316 296 293 301 290 286 261 254 223 221 233 232 227 226 227 229 233 236 240 243 246 249 253 257 263 269 274 274 274 274 277 278 279 281 282 284 287 288
317 318 311 309 299 293 295 298 299 289 280 273 264 240 236 230 237 237 242 241 243 244 245 248 251 254 258 262 265 268 269 268 270 272 274 275 277 278 280 282 284 286 287 288
309 312 309 306 302 292 296 290 292 289 286 279 264 254 242 250 249 245 239 238 245 251 255 255 256 258 260 261 263 265 267 269 270 272 274 276 278 280 282 284 285 287 288 291
297 301 303 305 299 289 293 295 288 280 278 277 279 266 252 252 257 259 255 250 249 250 253 256 258 260 261 263 265 266 268 271 273 275 276 279 281 282 284 286 288 290 291 292
289 290 296 299 300 299 292 286 283 281 276 270 270 270 267 261 255 255 257 259 260 259 259 260 262 264 266 267 269 271 272 274 276 279 280 282 285 287 287 288 289 291 293 294
296 291 292 292 288 293 295 280 278 277 271 269 270 270 265 265 265 267 268 268 266 266 266 267 269 270 272 273 275 276 277 278 279 281 283 285 286 287 288 291 293 294 294 295
296 291 294 288 281 287 285 282 271 270 271 270 269 270 274 274 271 269 269 268 268 268 269 271 272 274 275 275 276 276 277 278 281 283 284 285 287 290 292 293 293 294 296 296
287 287 289 286 285 283 279 274 270 270 270 271 270 271 273 271 271 271 271 272 273 273 274 274 275 277 278 278 278 280 281 283 283 283 284 286 288 289 290 292 293 293 294 296
284 283 283 284 289 282 280 272 267 271 275 274 274 275 275 274 274 273 275 275 274 273 273 274 275 276 277 277 278 278 279 280 281 283 285 287 289 291 292 293 294 296 298 300
280 283 289 285 285 284 279 272 267 268 271 276 278 278 276 277 277 277 278 277 276 276 275 276 278 279 280 281 280 280 280 281 282 284 286 288 290 291 291 292 294 297 300 300
284 281 280 282 280 280 277 273 272 272 273 274 277 279 280 279 279 278 277 277 277 277 277 278 280 280 279 277 277 278 279 280 282 283 284 287 288 288 290 295 297 298 300 304